Location: Winnipeg
(49.8830°N, 97.1670°W)
Time: 20:13:27
(UTC-06:00)

Envisat - Pass Details

Date: 04 December 2022
Orbit: 763 x 765 km, 98.2° (Epoch: 28 January)

Event Time Altitude Azimuth Distance (km) Brightness Sun altitude
Rises 04:22:17 0° 18° (NNE) 3,246 6.5 -35.5°
Reaches altitude 10° 04:24:41 10° 24° (NNE) 2,314 5.8 -35.1°
Enters shadow 04:26:39 23° 34° (NE) 1,605 4.9 -34.8°
